ORBCOMM FM111 [-] (40089 NORAD) Tracking and Keplerian Element Data

This shows tracking and keplerian element data for the satellite.

Feedback or suggestion? Click here.




ElementValue
Catalog40089
NameORBCOMM FM111 [-]
Epoch Orbit23887
Epoch Day351.84014242
Epoch Year2018
RAAN117.0643
Inclination47.0065
Eccentricity0.0035703
Argument of Perigee111.9462
Mean Anonmoly248.5231
Mean Motion14.7709568
Decay Rate-9.5E-07
L11 40089U 14040D 18351.84014242 -.00000095 00000-0 15858-4 0 9999
L22 40089 47.0065 117.0643 0035703 111.9462 248.5231 14.77095680238879

Live tracking and technical data element details for ORBCOMM FM111 [-] (NORAD 40089). ORBCOMM FM111 [-] can be tracked NOW for your location showing map with azimuth and elevation plus other details from your city location.

Track the satellite on the map from your city or location and see movement details for azimuth, elevation, latitude, longitude, range, height, and movement on the map or in text.







IsCatalogInMostPopularTable: catalog: 40089, numindb: 96
Update: records affected: 1



GetName: 40089 ORBCOMM FM111 [-]

Hit Count: updated at: Wed, 19 Dec 2018 15:52:14 GMT